Temp
24 24 24 24 24 24 25 26 27 28 28 27 28 27 26 26 26 25 25 25 25 25 25 24 25 25 26 26 26 27 27 27 24 26 26 26 26 25 25 24 24 23 23
25 24 24 24 24 23 24 25 26 27 28 28 26 27 27 26 26 25 25 25 25 25 25 24 24 25 25 26 26 26 27 26 26 25 26 26 26 25 25 24 23 23 23
25 25 24 24 24 24 23 24 25 26 27 28 28 26 26 26 26 26 26 25 25 25 25 25 25 25 25 25 25 25 26 26 26 26 26 25 25 25 24 24 24 23 23
26 25 25 25 24 24 24 24 24 25 26 26 27 27 26 26 26 26 26 25 25 25 25 25 25 25 25 25 25 25 25 25 26 25 25 24 24 24 24 23 23 23 23
27 27 26 25 25 25 25 24 24 25 26 25 26 26 26 26 26 26 26 25 25 25 25 25 25 25 25 25 24 25 25 25 24 24 23 24 24 23 22 23 23 23 23
30 28 27 26 25 25 25 25 24 24 25 25 25 25 25 26 25 26 26 24 25 24 24 24 25 25 25 25 25 25 25 24 23 22 22 23 23 24 24 23 23 21 20
30 29 28 27 26 26 25 25 25 25 25 24 25 25 25 25 25 26 26 25 24 24 24 24 24 24 24 24 24 24 24 24 24 24 23 23 23 24 24 24 23 22 22
31 29 29 28 26 26 26 25 25 25 25 25 25 25 25 25 25 25 26 26 25 25 25 24 24 24 24 24 23 23 23 23 23 23 23 23 24 24 24 24 23 22 20
30 29 29 28 27 26 26 26 25 26 25 25 25 25 25 25 25 25 25 26 25 25 25 25 24 24 24 24 24 23 22 22 22 22 23 23 23 23 23 23 21 19 18
31 31 31 29 28 27 26 26 26 26 26 25 25 25 25 25 25 25 25 25 24 25 25 25 25 25 24 24 24 23 22 22 22 21 21 22 22 22 22 20 20 18 18
31 33 32 31 29 28 27 26 26 26 25 25 25 25 25 25 25 25 25 25 25 25 25 25 25 25 25 25 24 24 23 23 23 22 21 20 20 20 20 20 18 17 17
33 31 31 31 30 28 27 26 26 26 25 25 25 25 25 25 25 25 25 25 25 25 25 25 25 25 25 26 25 25 25 24 23 21 19 18 18 18 17 18 18 17 17
32 31 31 31 30 29 28 26 26 26 26 25 25 25 25 25 26 26 26 25 25 25 25 25 25 25 25 26 25 25 25 23 21 20 19 19 18 18 17 17 17 17 17
31 30 29 29 29 29 29 27 26 26 25 26 25 25 26 26 25 26 26 26 25 25 25 24 24 24 24 24 24 23 24 23 22 20 19 19 18 17 17 17 17 17 17
30 29 29 29 28 27 27 26 26 27 27 26 26 26 25 25 26 27 27 26 26 26 25 24 22 22 22 22 21 21 20 20 20 19 19 18 18 17 17 17 16 16 15
28 28 28 28 27 26 24 22 23 25 25 26 26 26 26 26 26 27 27 27 27 26 22 22 21 21 20 19 19 18 18 18 18 18 17 18 17 17 17 16 16 15 15
24 27 28 28 28 23 21 21 18 19 22 25 26 27 26 25 25 25 25 24 24 23 23 21 19 19 18 18 17 17 17 17 17 18 18 17 17 16 16 15 15 16 16
24 26 27 28 29 24 22 21 22 20 20 20 22 23 24 24 24 24 24 23 21 20 20 19 18 17 17 17 17 17 17 17 17 17 17 17 17 17 16 15 15 16 17
25 26 27 28 29 27 24 22 21 21 18 16 17 19 20 21 21 20 20 22 19 18 18 18 18 17 17 17 17 17 17 17 17 17 17 17 16 16 15 16 16 17 18
24 26 26 27 26 26 24 23 21 19 18 18 18 17 17 18 17 16 18 18 18 18 18 18 18 18 17 17 17 16 16 16 16 16 16 16 17 16 15 16 17 18 19
23 25 25 24 24 23 22 22 22 21 20 19 19 19 19 18 17 17 17 17 18 18 18 18 18 18 17 16 16 16 16 16 16 16 17 17 16 17 17 18 19 19 19
22 23 23 23 23 23 23 23 23 20 20 18 18 19 19 19 18 18 18 18 18 19 19 19 18 18 18 17 16 16 16 17 17 17 16 16 17 18 19 19 19 19 19
23 23 22 23 22 22 22 22 21 21 19 19 18 18 19 19 19 18 18 18 19 19 19 19 18 18 18 17 17 17 17 17 17 17 17 17 18 19 20 19 19 19 19
21 19 18 19 20 20 19 19 19 19 18 18 19 19 19 19 19 19 18 19 19 19 19 18 18 18 18 18 18 18 18 18 18 18 19 19 19 20 20 20 19 19 19
17 17 17 16 16 16 15 14 14 14 14 13 13 14 15 17 18 18 19 19 19 19 19 19 19 19 19 19 19 19 19 19 19 19 19 20 20 20 20 20 20 19 19
15 15 15 15 14 13 12 11 11 11 11 11 11 11 11 12 12 13 14 16 17 17 18 19 19 19 18 19 19 19 19 19 20 19 20 20 20 20 20 20 20 19 19
Height
757 762 769 774 778 784 790 793 797 802 805 808 809 811 815 817 821 826 829 833 834 836 838 840 841 842 842 842 844 844 844 844 844 844 845 847 848 849 851 852 854 855 856
747 756 763 769 774 779 783 788 791 795 799 803 806 807 809 813 818 822 824 826 829 831 832 834 835 836 837 838 839 839 839 839 838 838 840 840 842 845 848 849 851 852 852
742 750 756 761 766 770 775 780 784 788 791 795 799 801 804 808 812 815 818 820 822 824 825 825 825 827 829 831 832 833 832 833 835 835 835 836 837 839 841 843 844 846 847
733 740 746 751 757 763 768 770 775 780 784 787 790 794 797 800 804 807 809 812 814 816 816 815 818 819 819 821 823 824 826 828 827 827 829 831 833 836 835 835 836 838 838
723 730 735 742 748 754 759 762 767 772 776 779 783 787 791 793 795 799 801 803 806 805 807 808 809 808 809 811 814 815 819 821 821 821 822 825 827 826 826 828 830 830 829
714 719 726 733 739 743 749 754 759 762 767 772 773 778 782 784 787 789 791 795 797 798 798 799 800 800 801 803 804 807 809 809 810 814 815 815 815 814 816 819 820 821 825
703 710 717 723 729 734 740 746 750 754 758 761 765 769 771 773 776 779 782 786 787 788 788 789 790 790 791 793 796 799 800 800 802 805 806 804 803 803 807 808 809 816 814
697 702 709 715 720 727 733 736 741 744 748 752 755 758 760 761 764 770 775 778 779 778 777 777 780 780 783 787 790 790 790 791 792 796 795 795 795 797 802 811 813 813 815
690 694 699 705 711 718 721 727 732 737 740 743 747 750 750 751 756 761 768 771 770 767 767 771 771 772 775 780 782 782 782 781 786 786 785 783 786 792 793 792 800 807 809
680 685 691 696 702 706 712 718 723 727 731 736 738 740 742 743 748 752 758 763 761 760 763 762 763 764 769 772 774 774 771 769 773 773 774 774 777 780 780 783 789 794 802
676 680 685 690 694 699 705 710 715 720 725 728 731 734 735 736 739 742 747 750 749 754 753 753 756 758 761 763 763 762 760 764 763 761 760 760 763 764 764 767 772 779 793
677 680 683 686 690 694 698 703 708 713 717 721 724 725 726 728 730 732 736 739 744 745 745 748 750 752 752 752 752 751 752 752 754 752 751 752 754 755 756 757 743 762 776
674 674 676 680 685 688 692 696 702 706 709 713 716 717 718 721 722 725 727 732 736 737 739 741 743 744 745 744 743 744 745 746 747 746 743 743 742 745 749 752 746 751 769
672 672 673 675 679 683 686 691 694 697 701 704 707 709 712 714 715 717 719 722 726 728 731 733 734 736 737 737 738 738 740 739 738 735 733 732 737 739 736 745 740 750 762
667 668 669 670 673 677 682 685 688 691 693 696 700 704 706 707 707 709 711 713 716 719 723 726 727 729 731 732 733 734 735 734 733 731 729 729 728 730 732 743 753 757 765
665 665 665 665 668 671 675 680 683 685 687 691 695 698 699 700 701 703 704 706 710 715 718 720 723 725 728 729 730 730 729 729 729 728 729 732 733 728 735 747 749 754 766
665 662 662 662 663 666 670 673 678 683 684 687 690 692 694 697 699 699 702 704 707 710 715 717 720 723 725 726 727 727 726 726 727 728 732 732 734 738 738 748 749 759 766
661 658 657 657 658 660 664 669 672 676 681 686 688 690 692 695 696 699 701 702 706 709 713 716 718 721 723 725 726 726 726 727 727 728 730 733 734 738 739 744 749 753 760
655 652 651 651 651 653 657 663 669 674 678 684 688 690 693 695 696 698 699 700 703 708 712 714 716 719 720 721 723 724 724 725 726 728 729 732 735 741 742 740 745 751 757
653 648 645 644 645 648 654 660 666 673 678 684 687 690 693 696 698 698 699 701 705 708 711 712 715 717 718 720 721 722 724 725 725 728 729 732 734 738 742 744 748 752 756
654 648 647 646 645 648 654 660 666 671 678 684 688 691 694 695 697 699 701 703 706 708 710 712 714 716 718 718 720 719 721 721 723 726 730 731 732 736 738 744 745 748 754
651 651 649 651 652 655 658 662 668 673 679 685 689 692 695 696 697 699 702 704 706 709 710 711 714 715 715 716 718 719 720 720 722 724 729 731 734 738 741 743 746 749 755
647 651 652 653 656 658 662 665 671 676 682 687 690 693 695 696 697 699 701 703 706 707 710 710 712 715 715 714 715 718 720 720 717 720 725 731 734 737 738 743 745 747 752
647 652 655 657 660 664 667 672 677 682 686 691 692 693 695 697 699 700 703 705 706 709 710 711 711 712 715 716 718 719 720 722 724 724 727 730 734 737 739 740 743 748 751
652 654 660 663 669 674 677 682 687 689 691 695 696 696 697 698 700 702 703 706 707 707 709 709 712 713 713 717 719 721 722 723 724 726 727 729 732 734 736 739 741 744 749
661 663 665 670 675 682 685 689 694 696 698 701 701 701 701 703 704 704 703 705 705 707 707 710 713 712 715 716 719 720 720 721 723 724 726 728 728 732 734 736 740 742 746
Wind_Speed
39 41 37 36 38 40 35 34 38 36 29 18 19 29 36 36 33 28 26 26 24 24 23 22 21 20 23 21 15 17 17 17 12 13 12 18 23 23 21 19 17 18 16
43 36 37 33 32 34 36 36 33 37 39 34 22 25 32 35 32 33 29 29 28 28 28 27 27 25 26 25 22 24 25 23 22 21 13 20 26 26 23 20 20 20 19
38 38 34 37 36 33 35 39 39 36 39 40 38 30 35 37 35 33 34 33 33 29 33 34 34 32 31 32 32 28 29 28 26 24 23 19 28 26 23 22 22 21 19
40 39 38 37 37 36 35 38 41 40 40 41 39 39 35 37 39 37 35 37 38 38 38 36 39 39 38 37 36 38 35 30 32 29 25 20 25 25 28 27 25 24 23
39 40 40 39 37 37 38 36 37 41 40 42 41 39 38 38 40 41 40 41 40 41 42 43 41 43 44 43 41 41 39 37 32 27 26 24 24 17 27 30 29 27 27
40 40 40 38 39 40 38 38 36 37 42 38 39 41 39 41 39 43 45 39 41 40 41 42 43 43 46 46 46 44 41 42 35 27 25 20 29 33 27 31 31 24 11
40 40 38 39 39 39 39 37 38 38 36 38 38 37 39 42 42 45 45 42 38 40 42 39 40 42 43 45 48 47 48 46 43 36 29 32 33 38 33 29 31 24 23
36 35 39 37 38 38 37 38 39 38 38 37 38 40 40 42 44 46 45 47 40 40 43 43 42 40 41 40 40 45 51 50 50 44 41 42 41 38 37 30 22 17 19
33 33 36 38 38 37 39 38 38 36 35 37 36 37 40 41 41 43 44 46 44 44 45 41 41 41 40 38 39 38 39 45 41 47 50 48 44 36 33 30 24 15 17
34 36 38 40 39 39 38 38 37 37 36 32 34 36 37 40 37 39 41 42 40 40 38 39 41 44 35 34 39 36 36 37 36 42 44 50 43 41 41 38 34 24 22
26 37 36 35 38 37 36 35 35 33 31 32 31 32 35 36 37 38 40 45 41 35 36 35 31 30 35 39 37 42 43 40 37 41 47 46 44 47 50 46 41 29 26
9 21 27 34 34 34 36 32 32 30 29 28 28 30 31 33 35 37 40 42 40 38 35 30 27 27 31 30 36 44 48 48 39 33 33 34 36 39 37 39 38 36 34
12 23 32 33 33 32 31 29 27 28 28 26 26 26 28 28 29 33 37 37 39 45 37 33 31 29 23 24 22 30 41 42 32 28 30 32 37 40 33 31 34 28 28
13 16 25 30 31 32 30 28 27 26 25 25 24 24 23 23 27 28 28 34 37 39 42 39 35 32 31 32 35 32 28 26 32 32 35 36 29 28 27 17 16 25 24
12 13 21 27 29 26 25 21 25 26 29 25 25 22 21 21 28 28 30 27 30 35 37 33 30 29 28 30 27 26 25 25 25 25 26 21 24 22 19 14 26 26 20
18 18 19 23 25 25 27 14 13 21 23 28 25 27 27 19 23 22 24 28 25 26 20 20 19 20 18 17 18 18 17 17 17 15 2 2 11 20 21 26 28 26 24
20 21 21 22 23 24 23 23 17 11 10 16 18 20 24 17 11 9 13 15 14 14 13 14 10 8 9 10 9 9 7 6 5 7 7 11 14 21 27 21 26 27 21
27 22 20 25 26 23 25 25 25 23 18 12 15 16 16 15 13 11 12 12 11 11 9 7 5 4 4 4 4 4 3 4 4 5 14 18 20 23 22 25 28 24 23
22 23 24 21 28 24 27 25 23 18 21 21 19 17 15 15 15 14 13 10 12 10 10 9 8 7 7 7 7 7 6 6 8 11 15 17 21 21 21 29 26 26 25
6 5 8 17 18 22 22 24 22 20 21 19 15 18 18 13 11 10 10 13 13 14 12 11 9 6 7 8 8 7 6 8 9 15 17 18 17 19 21 21 24 25 21
7 9 14 18 24 27 25 23 24 23 18 18 17 15 11 10 11 11 12 13 14 13 9 7 5 4 6 7 7 9 11 11 11 13 13 16 22 23 25 27 28 25 22
13 5 19 24 26 25 25 26 23 24 24 20 13 12 9 13 11 10 9 6 6 5 6 7 7 9 8 10 9 11 11 12 14 16 13 18 24 22 26 25 26 25 23
17 13 14 17 21 23 22 21 24 26 23 14 11 13 10 8 7 8 7 6 7 8 7 8 9 9 9 7 9 9 11 11 10 15 18 23 21 23 23 26 22 26 28
28 26 25 26 24 24 26 24 25 24 20 13 12 12 9 9 9 9 10 11 8 8 9 7 8 7 9 7 5 6 9 9 12 14 16 22 20 20 15 19 27 28 30
28 29 26 29 26 25 27 26 24 24 26 22 22 25 27 20 13 6 6 7 5 9 7 8 6 8 8 6 6 7 9 10 11 14 14 18 18 20 21 17 20 22 26
30 28 29 27 29 25 25 25 23 25 25 24 26 27 27 27 24 21 20 14 8 6 6 5 7 10 10 9 7 6 4 7 11 16 16 15 15 18 17 16 17 18 18
Wind_Direction
198 202 205 209 215 216 215 220 225 225 224 228 225 218 213 212 215 213 218 216 221 225 226 229 233 233 233 231 235 223 227 232 221 239 239 216 204 203 210 223 225 225 239
199 200 206 207 209 214 215 219 222 226 227 228 220 215 215 214 215 217 216 220 223 225 227 225 231 234 235 234 235 234 233 229 232 240 235 221 209 216 223 214 218 227 240
196 200 201 206 209 210 212 218 222 225 228 229 232 222 215 215 216 217 218 219 221 226 231 229 230 228 233 235 236 238 234 233 233 236 239 216 209 212 212 216 224 233 242
195 197 202 205 207 209 212 216 219 221 225 227 230 231 224 218 219 221 222 224 227 229 233 235 234 232 235 235 234 235 237 235 231 230 230 212 211 219 219 218 222 230 238
194 198 203 205 205 207 211 213 215 219 223 226 225 228 229 226 223 223 225 226 226 230 234 236 239 240 239 240 237 237 237 236 236 232 231 226 220 210 212 222 229 234 236
198 200 202 201 202 204 208 211 213 216 221 222 225 223 224 227 225 226 228 223 226 227 232 235 236 241 244 242 242 243 244 234 229 230 229 225 224 225 222 218 222 219 234
200 203 201 201 201 204 206 208 212 216 217 219 222 225 224 226 227 227 229 225 225 227 231 234 235 236 239 241 241 243 245 248 245 232 227 224 224 222 218 218 220 227 229
202 200 204 201 202 204 205 207 211 215 216 218 220 222 226 228 229 228 229 229 228 231 233 234 234 237 235 238 237 238 238 241 242 238 237 240 240 237 222 231 223 236 237
197 200 198 200 200 201 205 207 210 214 217 220 223 223 226 231 231 230 227 229 232 235 238 239 239 240 239 234 239 235 241 242 242 244 243 244 241 235 215 196 205 224 247
205 201 206 203 200 202 205 206 209 213 217 220 225 227 230 234 233 231 229 229 235 239 243 247 246 246 245 242 238 235 238 240 237 238 237 240 235 224 208 210 220 228 240
208 213 211 209 205 204 204 205 207 210 214 219 225 230 234 236 234 233 229 228 231 239 244 248 250 252 250 248 246 243 240 247 243 242 236 229 222 219 215 217 219 231 233
273 228 220 218 211 206 203 202 204 206 212 217 222 230 235 237 238 239 235 233 232 236 242 248 252 256 256 253 250 251 252 252 242 237 227 224 219 217 217 216 211 232 223
273 236 222 221 219 209 206 199 198 203 210 217 222 228 235 239 243 243 243 240 238 240 242 246 248 248 251 259 269 266 258 254 245 237 232 232 224 225 225 215 210 214 226
234 246 225 214 213 214 211 203 201 205 212 218 221 229 234 237 237 240 246 240 238 240 244 244 245 248 251 261 270 277 275 266 258 241 238 240 228 215 195 182 185 177 187
257 259 237 216 208 198 197 203 209 212 216 218 223 225 221 230 239 242 241 241 237 238 243 244 247 252 260 266 271 276 276 277 273 258 252 242 222 184 142 182 175 175 163
267 259 241 208 198 182 183 168 203 218 223 226 223 221 229 238 234 241 238 238 238 237 223 224 230 244 259 276 291 296 296 287 266 252 71 346 113 135 175 176 170 166 160
308 255 243 216 197 175 171 163 136 122 166 204 220 223 221 190 170 171 173 170 178 186 200 209 221 253 285 295 292 284 277 276 238 234 237 186 183 161 152 151 154 166 172
287 271 250 228 212 177 175 178 175 158 146 134 152 166 169 179 183 185 188 188 175 192 191 184 194 210 225 242 242 225 211 237 228 198 196 182 173 165 155 163 170 171 182
279 255 244 237 219 193 176 172 169 150 144 138 131 127 134 144 143 147 157 164 152 149 153 156 163 177 192 209 234 240 228 214 202 194 183 181 178 174 171 169 170 178 177
299 136 175 175 152 159 155 147 136 136 142 148 150 145 141 139 141 125 126 139 139 144 148 155 174 198 216 221 202 212 212 202 192 192 173 175 184 190 176 171 180 178 181
258 123 104 106 109 113 113 120 130 140 138 135 140 155 157 159 142 136 141 153 158 152 145 153 167 198 215 202 194 183 189 185 180 177 189 196 183 172 177 184 185 186 187
181 177 111 109 112 113 120 126 125 113 118 123 128 141 138 140 136 150 144 144 161 178 193 183 187 204 209 199 211 202 206 207 213 213 227 199 183 191 186 188 192 192 188
172 166 128 119 112 108 101 110 108 110 113 108 117 138 136 142 156 169 176 173 170 167 185 184 190 211 235 223 218 216 207 197 189 182 183 186 195 195 195 199 195 189 182
99 89 85 80 86 86 81 79 80 79 84 103 130 134 141 158 161 162 179 180 181 178 185 189 199 196 168 172 166 175 178 176 176 179 196 195 199 198 199 200 197 196 193
85 87 82 85 80 78 79 73 69 69 73 67 64 64 65 72 71 99 188 194 194 177 174 173 182 171 165 186 199 202 213 214 212 211 204 194 216 218 203 196 188 181 192
76 76 78 76 76 77 81 83 77 77 74 68 67 69 68 67 69 72 74 76 114 140 153 182 145 151 144 128 123 128 163 199 215 213 207 201 185 193 194 189 189 195 202